Change the Weather History Date:

Wednesday, July 24, 2013

  Actual Average Record
Temperature  
Mean Temperature 64 °F -  
Max Temperature 69 °F 61 °F 71 °F (1997)
Min Temperature 59 °F 46 °F 44 °F (2008)
Degree Days  
Heating Degree Days 1    
Growing Degree Days 14 (Base 50)    
Moisture  
Dew Point 55 °F    
Average Humidity 72    
Maximum Humidity 88    
Minimum Humidity 60    
Precipitation  
Precipitation 0.00 in - - ()
Sea Level Pressure  
Sea Level Pressure 30.17 in    
Wind  
Wind Speed 1 mph (NW)    
Max Wind Speed 5 mph    
Max Gust Speed -    
Visibility 10 miles    
Events      
Averages and records for this station are not official NWS values.
T = Trace of Precipitation, MM = Missing Value Source: NWS Daily Summary

Daily Weather History Graph

Daily Weather History Graph

Search for Another Location

Airport or City:

Trip Planner

Search our weather history database for the weather conditions in past years. The results will help you decide how hot, cold, wet, or windy it might be!

Date:

Astronomy

Jul. 24, 2013 Rise Set
Actual Time 5:37 AM AKDT 11:30 PM AKDT
Civil Twilight 4:17 AM AKDT 12:49 AM AKDT
Nautical Twilight Sun does not rise Sun does not rise
Astronomical Twilight Sun does not rise Sun does not rise
Moon 11:21 PM AKDT (7/24) 9:21 AM AKDT (7/24)
Length of Visible Light 20h 31m
Length of Day
17h 53m
Waning Gibbous, 94% of the Moon is Illuminated
Jul 24
Waning Gibbous
Jul 29
Last Quarter
Aug 6
New
Aug 14
First Quarter
Aug 20
Full

Hourly Weather History & Observations

Time (AKDT) Temp. Dew Point Humidity Pressure Visibility Wind Dir Wind Speed Gust Speed Precip Events Conditions
12:16 AM 64.4 °F 55.4 °F 73% 30.20 in 10.0 mi Calm Calm - N/A   Overcast
12:56 AM 64.4 °F 55.4 °F 73% 30.20 in 10.0 mi Calm Calm - N/A   Overcast
1:16 AM 64.4 °F 55.4 °F 73% 30.19 in 10.0 mi Calm Calm - N/A   Overcast
1:36 AM 64.4 °F 55.4 °F 73% 30.19 in 10.0 mi Calm Calm - N/A   Overcast
2:16 AM 64.4 °F 55.4 °F 73% 30.19 in 10.0 mi Calm Calm - N/A   Overcast
2:36 AM 64.4 °F 55.4 °F 73% 30.19 in 10.0 mi SW 4.6 mph - N/A   Overcast
2:56 AM 64.4 °F 55.4 °F 73% 30.19 in 10.0 mi WSW 3.5 mph - N/A   Overcast
3:16 AM 64.4 °F 55.4 °F 73% 30.19 in 10.0 mi Calm Calm - N/A   Overcast
3:36 AM 62.6 °F 55.4 °F 77% 30.19 in 10.0 mi Calm Calm - N/A   Overcast
4:36 AM 62.6 °F 53.6 °F 72% 30.19 in 10.0 mi Calm Calm - N/A   Overcast
4:56 AM 60.8 °F 53.6 °F 77% 30.19 in 10.0 mi Calm Calm - N/A   Mostly Cloudy
5:16 AM 60.8 °F 53.6 °F 77% 30.19 in 10.0 mi Calm Calm - N/A   Mostly Cloudy
5:36 AM 60.8 °F 53.6 °F 77% 30.19 in 10.0 mi Calm Calm - N/A   Overcast
5:56 AM 60.8 °F 53.6 °F 77% 30.19 in 10.0 mi WSW 3.5 mph - N/A   Overcast
6:16 AM 60.8 °F 53.6 °F 77% 30.19 in 10.0 mi Calm Calm - N/A   Overcast
6:36 AM 60.8 °F 55.4 °F 82% 30.19 in 10.0 mi Calm Calm - N/A   Overcast
6:56 AM 60.8 °F 55.4 °F 82% 30.19 in 10.0 mi Calm Calm - N/A   Overcast
7:36 AM 60.8 °F 55.4 °F 82% 30.19 in 10.0 mi NW 3.5 mph - N/A   Overcast
8:16 AM 60.8 °F 55.4 °F 82% 30.18 in 10.0 mi NNW 3.5 mph - N/A   Overcast
8:36 AM 60.8 °F 55.4 °F 82% 30.18 in 10.0 mi Calm Calm - N/A   Overcast
8:56 AM 60.8 °F 53.6 °F 77% 30.18 in 10.0 mi Calm Calm - N/A   Overcast
9:36 AM 60.8 °F 55.4 °F 82% 30.18 in 10.0 mi Calm Calm - N/A   Overcast
9:56 AM 60.8 °F 55.4 °F 82% 30.18 in 10.0 mi Calm Calm - N/A   Overcast
10:16 AM 60.8 °F 53.6 °F 77% 30.18 in 10.0 mi Calm Calm - N/A   Overcast
10:36 AM 60.8 °F 55.4 °F 82% 30.18 in 10.0 mi NNW 4.6 mph - N/A   Overcast
10:56 AM 59.0 °F 55.4 °F 88% 30.18 in 9.0 mi NNW 4.6 mph - N/A   Overcast
11:16 AM 62.6 °F 55.4 °F 77% 30.18 in 10.0 mi NW 4.6 mph - N/A   Overcast
11:36 AM 62.6 °F 53.6 °F 72% 30.18 in 10.0 mi NW 3.5 mph - N/A   Overcast
11:56 AM 62.6 °F 53.6 °F 72% 30.18 in 10.0 mi NW 3.5 mph - N/A   Overcast
12:16 PM 62.6 °F 53.6 °F 72% 30.18 in 10.0 mi NW 3.5 mph - N/A   Overcast
12:36 PM 62.6 °F 53.6 °F 72% 30.18 in 10.0 mi NW 3.5 mph - N/A   Overcast
12:56 PM 62.6 °F 53.6 °F 72% 30.18 in 10.0 mi NW 3.5 mph - N/A   Overcast
1:16 PM 64.4 °F 55.4 °F 73% 30.18 in 10.0 mi NW 4.6 mph - N/A   Overcast
1:36 PM 62.6 °F 55.4 °F 77% 30.18 in 10.0 mi Calm Calm - N/A   Overcast
1:56 PM 62.6 °F 53.6 °F 72% 30.18 in 8.0 mi Calm Calm - N/A   Overcast
2:16 PM 64.4 °F 55.4 °F 73% 30.17 in 10.0 mi Calm Calm - N/A   Overcast
2:36 PM 64.4 °F 55.4 °F 73% 30.17 in 10.0 mi Calm Calm - N/A   Overcast
2:56 PM 64.4 °F 53.6 °F 68% 30.17 in 10.0 mi Calm Calm - N/A   Mostly Cloudy
3:16 PM 66.2 °F 55.4 °F 68% 30.16 in 10.0 mi Calm Calm - N/A   Mostly Cloudy
3:36 PM 66.2 °F 55.4 °F 68% 30.16 in 10.0 mi Calm Calm - N/A   Mostly Cloudy
3:56 PM 66.2 °F 55.4 °F 68% 30.16 in 10.0 mi Calm Calm - N/A   Scattered Clouds
4:16 PM 68.0 °F 55.4 °F 64% 30.15 in 10.0 mi Calm Calm - N/A   Partly Cloudy
4:56 PM 69.8 °F 55.4 °F 60% 30.15 in 10.0 mi Calm Calm - N/A   Clear
5:16 PM 69.8 °F 55.4 °F 60% 30.14 in 10.0 mi West 3.5 mph - N/A   Clear
5:36 PM 68.0 °F 55.4 °F 64% 30.14 in 10.0 mi Calm Calm - N/A   Clear
6:16 PM 69.8 °F 55.4 °F 60% 30.13 in 10.0 mi Calm Calm - N/A   Clear
6:36 PM 68.0 °F 55.4 °F 64% 30.13 in 10.0 mi Calm Calm - N/A   Partly Cloudy
6:56 PM 66.2 °F 55.4 °F 68% 30.12 in 10.0 mi NNW 4.6 mph - N/A   Mostly Cloudy
7:36 PM 69.8 °F 55.4 °F 60% 30.12 in 10.0 mi NNW 4.6 mph - N/A   Overcast
7:56 PM 69.8 °F 55.4 °F 60% 30.12 in 10.0 mi Calm Calm - N/A   Overcast
8:36 PM 69.8 °F 55.4 °F 60% 30.12 in 10.0 mi West 3.5 mph - N/A   Overcast
8:56 PM 68.0 °F 55.4 °F 64% 30.12 in 10.0 mi Calm Calm - N/A   Mostly Cloudy
9:16 PM 68.0 °F 55.4 °F 64% 30.12 in 10.0 mi Calm Calm - N/A   Mostly Cloudy
9:36 PM 66.2 °F 55.4 °F 68% 30.12 in 10.0 mi Calm Calm - N/A   Mostly Cloudy
10:16 PM 66.2 °F 55.4 °F 68% 30.12 in 10.0 mi Calm Calm - N/A   Scattered Clouds
10:36 PM 64.4 °F 55.4 °F 73% 30.12 in 10.0 mi Calm Calm - N/A   Clear
10:56 PM 64.4 °F 55.4 °F 73% 30.12 in 10.0 mi Calm Calm - N/A   Clear
11:36 PM 64.4 °F 53.6 °F 68% 30.13 in 10.0 mi Calm Calm - N/A   Partly Cloudy
11:56 PM 62.6 °F 53.6 °F 72% 30.13 in 10.0 mi Calm Calm - N/A   Clear